Meteo Giornale » Osservazioni meteo India » Hyderabad
ore: 08:30 - Osservazioni Meteo Hyderabad
Lat. 17° 27' N Lon. 78° 28' E Alt. 530 metri s.l.m.
26 °C
Foschia
Temp. 24 Ore
24 °C
29 °C
Ovest
16.7 Km/h
Dew point 20 °C
Umidità 69 %
Visibilità 5 Km
Il sole sorge alle ore 06:02
Il sole tramonta alle ore 18:30
| Data e Ora | Cielo e Fenomeni | T °C | DP °C | Um. % | Pres. hPa | Vis. km | Vento km/h | |
|---|---|---|---|---|---|---|---|---|
| Oggi h: 08:30 | Foschia | 26 | 20 | 69 | 1013 | 5 | O 16.7 | |
| Oggi h: 08:00 | Foschia | 25 | 20 | 73 | 1012 | 5 | O/NO 18.5 | |
| Oggi h: 07:30 | Foschia | 25 | 20 | 73 | 1012 | 5 | O 11.1 | |
| Oggi h: 07:00 | Foschia | 24 | 20 | 78 | 1012 | 5 | O 14.8 | |
| Oggi h: 06:30 | Foschia | 24 | 20 | 78 | 1011 | 5 | O 13 | |
| Oggi h: 06:00 | Foschia | 24 | 21 | 83 | 1011 | 5 | O 11.1 | |
| Oggi h: 05:30 | Foschia | 24 | 21 | 83 | 1011 | 5 | O 14.8 | |
| Ieri h: 23:30 | Foschia | 25 | 22 | 83 | 1011 | 5 | N 0 | |
| Ieri h: 23:00 | Foschia | 25 | 22 | 83 | 1011 | 5 | N 0 | |
| Ieri h: 22:30 | Foschia | 26 | 21 | 73 | 1011 | 5 | N 3.7 | |
| Ieri h: 22:00 | Foschia | 26 | 21 | 73 | 1011 | 5 | SO 7.4 | |
| Ieri h: 21:30 | Foschia | 25 | 22 | 83 | 1011 | 5 | N 3.7 | |
| Ieri h: 21:00 | Foschia | 26 | 21 | 73 | 1011 | 5 | N 3.7 | |
| Ieri h: 20:30 | Foschia | 26 | 21 | 73 | 1011 | 5 | N 3.7 | |
| Ieri h: 20:00 | Foschia | 26 | 21 | 73 | 1011 | 5 | N 3.7 | |
| Ieri h: 19:30 | Foschia | 26 | 21 | 73 | 1011 | 5 | N 3.7 | |
| Ieri h: 19:00 | Foschia | 27 | 20 | 65 | 1010 | 5 | N 3.7 | |
| Ieri h: 18:30 | Foschia | 27 | 20 | 65 | 1010 | 5 | O/NO 9.3 | |
| Ieri h: 18:00 | Foschia | 28 | 20 | 61 | 1010 | 5 | O/NO 11.1 | |
| Ieri h: 17:30 | Foschia | 28 | 20 | 61 | 1009 | 5 | O/NO 11.1 | |
| Ieri h: 17:00 | Foschia | 28 | 20 | 61 | 1009 | 5 | O 18.5 | |
| Ieri h: 16:30 | Foschia | 29 | 20 | 58 | 1009 | 5 | O 18.5 | |
| Ieri h: 16:00 | Foschia | 28 | 20 | 61 | 1009 | 5 | O/NO 14.8 | |
| Ieri h: 15:30 | Foschia | 29 | 20 | 58 | 1009 | 5 | O/NO 18.5 | |
| Ieri h: 15:00 | Foschia | 29 | 20 | 58 | 1010 | 5 | O 27.8 | |
| Ieri h: 14:30 | Foschia | 29 | 20 | 58 | 1010 | 5 | O/NO 27.8 | |
| Ieri h: 14:00 | Foschia | 29 | 21 | 62 | 1010 | 5 | O/NO 18.5 | |
| Ieri h: 13:30 | Foschia | 28 | 21 | 65 | 1011 | 5 | O/NO 18.5 | |
| Ieri h: 13:00 | Foschia | 27 | 20 | 65 | 1011 | 5 | O 18.5 | |
| Ieri h: 12:30 | Foschia | 28 | 20 | 61 | 1012 | 5 | O/NO 18.5 | |
| Ieri h: 12:00 | Foschia | 28 | 20 | 61 | 1012 | 5 | O 14.8 | |
| Ieri h: 11:30 | Foschia | 27 | 20 | 65 | 1012 | 5 | O 18.5 | |
| Ieri h: 11:00 | Foschia | 27 | 20 | 65 | 1013 | 5 | NO 18.5 | |
| Ieri h: 10:30 | Foschia | 26 | 20 | 69 | 1013 | 5 | O/NO 18.5 | |
| Ieri h: 10:00 | Foschia | 25 | 20 | 73 | 1013 | 5 | O 18.5 | |
| Ieri h: 09:30 | Foschia | 25 | 21 | 78 | 1013 | 5 | O/NO 14.8 | |



